| time (UTC) | temp C | wind direction | speed KPH | gust KPH | rain 1hr cm | rain 24hr cm | rain mn cm | humidity % | barometer mb |
| 20260509115045 | 11 | 0 | 1.6 | 8.0 | 0.00 | 0.00 | 0.00 | 84 | 1001.7 |
| 20260509114556 | 11 | 196 | 1.6 | 8.0 | 0.00 | 0.00 | 0.00 | 84 | 1001.7 |
| 20260509114045 | 11 | 190 | 1.6 | 8.0 | 0.00 | 0.00 | 0.00 | 84 | 1001.8 |
| 20260509113545 | 11 | 207 | 1.6 | 8.0 | 0.00 | 0.00 | 0.00 | 84 | 1001.7 |
| 20260509113050 | 11 | 232 | 1.6 | 6.4 | 0.00 | 0.00 | 0.00 | 84 | 1001.7 |
| 20260509112545 | 11 | 200 | 1.6 | 6.4 | 0.00 | 0.00 | 0.00 | 84 | 1001.5 |
| 20260509112045 | 11 | 199 | 1.6 | 4.8 | 0.00 | 0.00 | 0.00 | 84 | 1001.5 |
| 20260509111553 | 11 | 228 | 0.0 | 4.8 | 0.00 | 0.00 | 0.00 | 84 | 1001.4 |
| 20260509111045 | 11 | 203 | 1.6 | 6.4 | 0.00 | 0.00 | 0.00 | 83 | 1001.5 |
| 20260509110545 | 11 | 225 | 0.0 | 6.4 | 0.00 | 0.00 | 0.00 | 83 | 1001.5 |
| 20260509110057 | 11 | 205 | 1.6 | 6.4 | 0.00 | 0.00 | 0.00 | 83 | 1001.3 |
| 20260509105545 | 11 | 226 | 1.6 | 6.4 | 0.00 | 0.00 | 0.00 | 84 | 1001.2 |
| 20260509105045 | 11 | 205 | 0.0 | 6.4 | 0.00 | 0.00 | 0.00 | 83 | 1001.2 |
| 20260509104548 | 11 | 219 | 1.6 | 8.0 | 0.00 | 0.00 | 0.00 | 83 | 1001.2 |
| 20260509104044 | 11 | 216 | 1.6 | 9.7 | 0.00 | 0.00 | 0.00 | 83 | 1001.1 |
| 20260509103545 | 11 | 207 | 3.2 | 9.7 | 0.00 | 0.00 | 0.00 | 83 | 1001.0 |
| 20260509103050 | 11 | 222 | 3.2 | 8.0 | 0.00 | 0.00 | 0.00 | 83 | 1000.8 |
| 20260509102545 | 11 | 219 | 1.6 | 8.0 | 0.00 | 0.00 | 0.00 | 83 | 1000.8 |
| 20260509102046 | 11 | 198 | 3.2 | 8.0 | 0.00 | 0.00 | 0.00 | 83 | 1000.8 |
| 20260509101555 | 11 | 0 | 1.6 | 9.7 | 0.00 | 0.00 | 0.00 | 83 | 1000.8 |
| 20260509101044 | 11 | 196 | 0.0 | 9.7 | 0.00 | 0.00 | 0.00 | 82 | 1000.9 |
| 20260509100545 | 11 | 198 | 3.2 | 11.3 | 0.00 | 0.00 | 0.00 | 82 | 1000.9 |
| 20260509100108 | 11 | 209 | 1.6 | 11.3 | 0.00 | 0.00 | 0.00 | 82 | 1001.0 |
| 20260509095546 | 11 | 221 | 3.2 | 9.7 | 0.00 | 0.00 | 0.00 | 82 | 1000.8 |
| 20260509095045 | 11 | 193 | 4.8 | 9.7 | 0.00 | 0.00 | 0.00 | 82 | 1001.2 |
| 20260509094551 | 12 | 0 | 3.2 | 9.7 | 0.00 | 0.00 | 0.00 | 82 | 1001.3 |
| 20260509094045 | 12 | 220 | 3.2 | 9.7 | 0.00 | 0.00 | 0.00 | 81 | 1001.3 |
| 20260509093545 | 12 | 209 | 3.2 | 12.9 | 0.00 | 0.00 | 0.00 | 81 | 1001.2 |
| 20260509093055 | 12 | 234 | 4.8 | 12.9 | 0.00 | 0.00 | 0.00 | 81 | 1001.2 |
| 20260509092545 | 12 | 221 | 3.2 | 12.9 | 0.00 | 0.00 | 0.00 | 81 | 1001.3 |
| 20260509092046 | 12 | 0 | 3.2 | 9.7 | 0.00 | 0.00 | 0.00 | 81 | 1001.3 |
| 20260509091552 | 12 | 220 | 1.6 | 11.3 | 0.00 | 0.00 | 0.00 | 81 | 1001.4 |
| 20260509091047 | 12 | 201 | 3.2 | 11.3 | 0.00 | 0.00 | 0.00 | 81 | 1001.2 |
| 20260509090548 | 12 | 243 | 4.8 | 11.3 | 0.00 | 0.00 | 0.00 | 81 | 1001.2 |
| 20260509090052 | 12 | 234 | 3.2 | 9.7 | 0.00 | 0.00 | 0.00 | 81 | 1001.3 |
| 20260509085545 | 12 | 223 | 4.8 | 12.9 | 0.00 | 0.00 | 0.00 | 81 | 1001.2 |
| 20260509085044 | 12 | 215 | 6.4 | 12.9 | 0.00 | 0.00 | 0.00 | 81 | 1001.3 |
| 20260509084558 | 12 | 202 | 4.8 | 12.9 | 0.00 | 0.00 | 0.00 | 81 | 1001.2 |
| 20260509084046 | 12 | 207 | 3.2 | 11.3 | 0.00 | 0.00 | 0.00 | 81 | 1001.3 |
| 20260509083545 | 12 | 197 | 3.2 | 11.3 | 0.00 | 0.00 | 0.00 | 81 | 1001.4 |
| 20260509083051 | 12 | 201 | 3.2 | 11.3 | 0.00 | 0.00 | 0.00 | 81 | 1001.4 |
| 20260509082545 | 12 | 208 | 4.8 | 11.3 | 0.00 | 0.00 | 0.00 | 81 | 1001.4 |
| 20260509082047 | 12 | 207 | 4.8 | 11.3 | 0.00 | 0.00 | 0.00 | 82 | 1001.3 |
| 20260509081552 | 12 | 219 | 4.8 | 11.3 | 0.00 | 0.00 | 0.00 | 81 | 1001.4 |
| 20260509081045 | 12 | 236 | 4.8 | 11.3 | 0.00 | 0.00 | 0.00 | 81 | 1001.4 |
| 20260509080545 | 12 | 218 | 6.4 | 14.5 | 0.00 | 0.00 | 0.00 | 81 | 1001.4 |
| 20260509080129 | 12 | 201 | 4.8 | 14.5 | 0.00 | 0.00 | 0.00 | 81 | 1001.4 |
| 20260509075547 | 12 | 212 | 4.8 | 11.3 | 0.00 | 0.00 | 0.00 | 81 | 1001.6 |
| 20260509075047 | 12 | 198 | 4.8 | 9.7 | 0.00 | 0.00 | 0.00 | 81 | 1001.5 |
| 20260509074557 | 12 | 209 | 4.8 | 9.7 | 0.00 | 0.00 | 0.00 | 81 | 1001.6 |
| 20260509074046 | 12 | 186 | 3.2 | 9.7 | 0.00 | 0.00 | 0.00 | 80 | 1001.6 |
| 20260509073546 | 12 | 197 | 3.2 | 9.7 | 0.00 | 0.00 | 0.00 | 80 | 1001.6 |
| 20260509073156 | 12 | 196 | 4.8 | 11.3 | 0.00 | 0.00 | 0.00 | 80 | 1001.6 |
| 20260509072546 | 12 | 215 | 4.8 | 11.3 | 0.00 | 0.00 | 0.00 | 80 | 1001.6 |
| 20260509072045 | 12 | 236 | 4.8 | 11.3 | 0.00 | 0.00 | 0.00 | 79 | 1001.6 |
| 20260509071551 | 12 | 186 | 4.8 | 11.3 | 0.00 | 0.00 | 0.00 | 78 | 1001.8 |
| 20260509071046 | 12 | 194 | 6.4 | 12.9 | 0.00 | 0.00 | 0.00 | 78 | 1001.7 |
| 20260509070545 | 13 | 200 | 6.4 | 12.9 | 0.00 | 0.00 | 0.00 | 78 | 1001.8 |
| 20260509070054 | 13 | 201 | 4.8 | 12.9 | 0.00 | 0.00 | 0.00 | 77 | 1001.8 |
| 20260509065545 | 13 | 220 | 4.8 | 16.1 | 0.00 | 0.00 | 0.00 | 78 | 1002.1 |
| 20260509065047 | 13 | 210 | 4.8 | 16.1 | 0.00 | 0.00 | 0.00 | 76 | 1002.1 |
| 20260509064550 | 13 | 224 | 6.4 | 14.5 | 0.00 | 0.00 | 0.00 | 76 | 1002.2 |
| 20260509064047 | 13 | 202 | 3.2 | 12.9 | 0.00 | 0.00 | 0.00 | 75 | 1002.3 |
| 20260509063547 | 13 | 0 | 4.8 | 14.5 | 0.00 | 0.00 | 0.00 | 75 | 1002.4 |
| 20260509063049 | 13 | 229 | 6.4 | 14.5 | 0.00 | 0.00 | 0.00 | 74 | 1002.3 |
| 20260509062544 | 13 | 215 | 4.8 | 9.7 | 0.00 | 0.00 | 0.00 | 75 | 1002.5 |
| 20260509062045 | 12 | 215 | 4.8 | 11.3 | 0.00 | 0.00 | 0.00 | 74 | 1002.6 |
| 20260509061558 | 12 | 207 | 4.8 | 11.3 | 0.00 | 0.00 | 0.00 | 74 | 1002.7 |
| 20260509061045 | 12 | 233 | 4.8 | 9.7 | 0.00 | 0.00 | 0.00 | 73 | 1002.8 |
| 20260509060547 | 12 | 221 | 3.2 | 9.7 | 0.00 | 0.00 | 0.00 | 72 | 1002.8 |
| 20260509060051 | 12 | 202 | 3.2 | 11.3 | 0.00 | 0.00 | 0.00 | 73 | 1002.8 |
| 20260509055548 | 12 | 202 | 4.8 | 11.3 | 0.00 | 0.00 | 0.00 | 73 | 1002.9 |
| 20260509055044 | 12 | 205 | 3.2 | 9.7 | 0.00 | 0.00 | 0.00 | 73 | 1002.8 |
| 20260509054549 | 12 | 223 | 3.2 | 8.0 | 0.00 | 0.00 | 0.00 | 72 | 1002.9 |
| 20260509054045 | 11 | 200 | 1.6 | 8.0 | 0.00 | 0.00 | 0.00 | 72 | 1003.1 |
| 20260509053546 | 11 | 198 | 3.2 | 8.0 | 0.00 | 0.00 | 0.00 | 74 | 1003.2 |
| 20260509053052 | 11 | 208 | 3.2 | 8.0 | 0.00 | 0.00 | 0.00 | 75 | 1003.2 |
| 20260509052545 | 11 | 211 | 1.6 | 9.7 | 0.00 | 0.00 | 0.00 | 76 | 1003.4 |
| 20260509052046 | 11 | 201 | 4.8 | 9.7 | 0.00 | 0.00 | 0.00 | 77 | 1003.3 |
| 20260509051558 | 11 | 192 | 3.2 | 9.7 | 0.00 | 0.00 | 0.00 | 78 | 1003.4 |
| 20260509051046 | 11 | 205 | 4.8 | 6.4 | 0.00 | 0.00 | 0.00 | 78 | 1003.4 |
| 20260509050544 | 11 | 202 | 1.6 | 9.7 | 0.00 | 0.00 | 0.00 | 79 | 1003.5 |
| 20260509050053 | 11 | 211 | 3.2 | 11.3 | 0.00 | 0.00 | 0.00 | 80 | 1003.6 |
| 20260509045547 | 11 | 187 | 6.4 | 11.3 | 0.00 | 0.00 | 0.00 | 79 | 1003.5 |
| 20260509045046 | 11 | 185 | 6.4 | 11.3 | 0.00 | 0.00 | 0.00 | 79 | 1003.5 |
| 20260509044554 | 11 | 198 | 6.4 | 11.3 | 0.00 | 0.00 | 0.00 | 78 | 1003.3 |
| 20260509044045 | 11 | 191 | 6.4 | 11.3 | 0.00 | 0.00 | 0.00 | 78 | 1003.3 |
| 20260509043546 | 11 | 183 | 3.2 | 9.7 | 0.00 | 0.00 | 0.00 | 77 | 1003.3 |
| 20260509043055 | 11 | 188 | 4.8 | 9.7 | 0.00 | 0.00 | 0.00 | 77 | 1003.4 |
| 20260509042547 | 11 | 178 | 4.8 | 8.0 | 0.00 | 0.00 | 0.00 | 76 | 1003.6 |
| 20260509042045 | 11 | 194 | 6.4 | 9.7 | 0.00 | 0.00 | 0.00 | 76 | 1003.5 |
| 20260509041552 | 11 | 190 | 6.4 | 9.7 | 0.00 | 0.00 | 0.00 | 77 | 1003.5 |
| 20260509041047 | 11 | 192 | 6.4 | 9.7 | 0.00 | 0.00 | 0.00 | 76 | 1003.5 |
| 20260509040544 | 11 | 195 | 4.8 | 9.7 | 0.00 | 0.00 | 0.00 | 77 | 1003.5 |
| 20260509035547 | 11 | 192 | 6.4 | 11.3 | 0.00 | 0.00 | 0.00 | 75 | 1003.4 |
| 20260509035045 | 11 | 180 | 6.4 | 11.3 | 0.00 | 0.00 | 0.00 | 75 | 1003.5 |
| 20260509034551 | 11 | 182 | 6.4 | 11.3 | 0.00 | 0.00 | 0.00 | 75 | 1003.5 |
| 20260509034044 | 11 | 190 | 6.4 | 11.3 | 0.00 | 0.00 | 0.00 | 75 | 1003.5 |
| 20260509033547 | 11 | 196 | 6.4 | 11.3 | 0.00 | 0.00 | 0.00 | 75 | 1003.6 |
| 20260509033050 | 11 | 180 | 6.4 | 11.3 | 0.00 | 0.00 | 0.00 | 75 | 1003.5 |
| 20260509032547 | 11 | 177 | 6.4 | 11.3 | 0.00 | 0.00 | 0.00 | 75 | 1003.6 |
| 20260509032048 | 11 | 186 | 8.0 | 12.9 | 0.00 | 0.00 | 0.00 | 74 | 1003.6 |
| 20260509031554 | 11 | 184 | 6.4 | 12.9 | 0.00 | 0.00 | 0.00 | 74 | 1003.7 |
| 20260509031047 | 11 | 184 | 8.0 | 12.9 | 0.00 | 0.00 | 0.00 | 73 | 1003.8 |
| 20260509030545 | 11 | 191 | 8.0 | 11.3 | 0.00 | 0.00 | 0.00 | 73 | 1003.8 |
| 20260509030053 | 11 | 188 | 8.0 | 11.3 | 0.00 | 0.00 | 0.00 | 73 | 1003.9 |
| 20260509025545 | 11 | 178 | 6.4 | 11.3 | 0.00 | 0.00 | 0.00 | 74 | 1004.0 |
| 20260509025045 | 11 | 178 | 6.4 | 12.9 | 0.00 | 0.00 | 0.00 | 73 | 1003.8 |
| 20260509024550 | 11 | 189 | 6.4 | 12.9 | 0.00 | 0.00 | 0.00 | 73 | 1003.9 |
| 20260509024043 | 11 | 198 | 6.4 | 11.3 | 0.00 | 0.00 | 0.00 | 73 | 1004.0 |
| 20260509023545 | 11 | 183 | 4.8 | 9.7 | 0.00 | 0.00 | 0.00 | 73 | 1004.0 |
| 20260509023050 | 11 | 186 | 4.8 | 11.3 | 0.00 | 0.00 | 0.00 | 72 | 1004.0 |
| 20260509022544 | 11 | 175 | 4.8 | 11.3 | 0.00 | 0.00 | 0.00 | 72 | 1004.1 |
| 20260509022048 | 11 | 186 | 4.8 | 11.3 | 0.00 | 0.00 | 0.00 | 71 | 1004.1 |
| 20260509021552 | 11 | 188 | 3.2 | 8.0 | 0.00 | 0.00 | 0.00 | 71 | 1004.1 |
| 20260509021047 | 11 | 196 | 1.6 | 9.7 | 0.00 | 0.00 | 0.00 | 70 | 1004.1 |
| 20260509020547 | 11 | 0 | 1.6 | 9.7 | 0.00 | 0.00 | 0.00 | 70 | 1004.0 |
| 20260509020054 | 11 | 186 | 3.2 | 9.7 | 0.00 | 0.00 | 0.00 | 68 | 1004.1 |
| 20260509015545 | 12 | 187 | 0.0 | 11.3 | 0.00 | 0.00 | 0.00 | 67 | 1004.3 |
| 20260509015046 | 12 | 198 | 3.2 | 11.3 | 0.00 | 0.00 | 0.00 | 67 | 1004.2 |
| 20260509014549 | 12 | 180 | 1.6 | 9.7 | 0.00 | 0.00 | 0.00 | 67 | 1004.2 |
| 20260509014051 | 12 | 188 | 3.2 | 12.9 | 0.00 | 0.00 | 0.00 | 68 | 1004.3 |
| 20260509013548 | 12 | 196 | 4.8 | 12.9 | 0.00 | 0.00 | 0.00 | 66 | 1004.3 |
| 20260509013101 | 12 | 186 | 8.0 | 12.9 | 0.00 | 0.00 | 0.00 | 67 | 1004.3 |
| 20260509012547 | 13 | 192 | 6.4 | 12.9 | 0.00 | 0.00 | 0.00 | 67 | 1004.3 |
| 20260509012046 | 13 | 192 | 8.0 | 12.9 | 0.00 | 0.00 | 0.00 | 68 | 1004.4 |
| 20260509011553 | 13 | 180 | 6.4 | 11.3 | 0.00 | 0.00 | 0.00 | 66 | 1004.5 |
| 20260509011046 | 13 | 178 | 4.8 | 9.7 | 0.00 | 0.00 | 0.00 | 66 | 1004.4 |
| 20260509010547 | 13 | 189 | 1.6 | 14.5 | 0.00 | 0.00 | 0.00 | 65 | 1004.5 |
| 20260509010056 | 13 | 0 | 4.8 | 14.5 | 0.00 | 0.00 | 0.00 | 64 | 1004.5 |
| 20260509005548 | 13 | 190 | 8.0 | 16.1 | 0.00 | 0.00 | 0.00 | 65 | 1004.5 |
| 20260509005047 | 14 | 172 | 9.7 | 16.1 | 0.00 | 0.00 | 0.00 | 64 | 1004.5 |
| 20260509004610 | 14 | 181 | 6.4 | 16.1 | 0.00 | 0.00 | 0.00 | 65 | 1004.5 |
| 20260509004049 | 14 | 193 | 8.0 | 16.1 | 0.00 | 0.00 | 0.00 | 64 | 1004.4 |
| 20260509003547 | 14 | 194 | 4.8 | 14.5 | 0.00 | 0.00 | 0.00 | 60 | 1004.5 |
| 20260509003052 | 15 | 194 | 4.8 | 14.5 | 0.00 | 0.00 | 0.00 | 60 | 1004.5 |
| 20260509002548 | 15 | 198 | 6.4 | 12.9 | 0.00 | 0.00 | 0.00 | 60 | 1004.5 |
| 20260509002047 | 15 | 185 | 6.4 | 16.1 | 0.00 | 0.00 | 0.00 | 57 | 1004.5 |
| 20260509001551 | 15 | 205 | 6.4 | 16.1 | 0.00 | 0.00 | 0.00 | 58 | 1004.5 |
| 20260509001048 | 15 | 172 | 6.4 | 16.1 | 0.00 | 0.00 | 0.00 | 55 | 1004.6 |
| 20260509000545 | 15 | 200 | 4.8 | 16.1 | 0.00 | 0.00 | 0.00 | 54 | 1004.5 |
| 20260509000051 | 15 | 188 | 9.7 | 16.1 | 0.00 | 0.00 | 0.00 | 55 | 1004.7 |
| 20260508235547 | 15 | 183 | 4.8 | 12.9 | 0.00 | 0.00 | 0.00 | 54 | 1004.7 |
| 20260508235046 | 15 | 196 | 3.2 | 14.5 | 0.00 | 0.00 | 0.00 | 49 | 1004.7 |
| 20260508234552 | 15 | 157 | 4.8 | 14.5 | 0.00 | 0.00 | 0.00 | 51 | 1004.8 |
| 20260508234047 | 15 | 182 | 4.8 | 17.7 | 0.00 | 0.00 | 0.00 | 50 | 1004.8 |
| 20260508233548 | 15 | 163 | 6.4 | 17.7 | 0.00 | 0.00 | 0.00 | 46 | 1004.8 |
| 20260508233059 | 15 | 181 | 4.8 | 14.5 | 0.00 | 0.00 | 0.00 | 48 | 1005.1 |
| 20260508232547 | 16 | 203 | 4.8 | 12.9 | 0.00 | 0.00 | 0.00 | 42 | 1005.0 |
| 20260508232046 | 16 | 0 | 4.8 | 16.1 | 0.00 | 0.00 | 0.00 | 43 | 1004.9 |
| 20260508231552 | 16 | 205 | 6.4 | 16.1 | 0.00 | 0.00 | 0.00 | 43 | 1005.0 |
| 20260508231046 | 17 | 161 | 4.8 | 14.5 | 0.00 | 0.00 | 0.00 | 41 | 1005.0 |
| 20260508230546 | 18 | 0 | 1.6 | 8.0 | 0.00 | 0.00 | 0.00 | 41 | 1005.1 |
| 20260508230059 | 18 | 194 | 1.6 | 6.4 | 0.00 | 0.00 | 0.00 | 32 | 1005.0 |
| 20260508225546 | 18 | 0 | 0.0 | 3.2 | 0.00 | 0.00 | 0.00 | 34 | 1005.0 |
| 20260508225048 | 18 | 0 | 0.0 | 6.4 | 0.00 | 0.00 | 0.00 | 34 | 1005.0 |
| 20260508224550 | 18 | 194 | 0.0 | 11.3 | 0.00 | 0.00 | 0.00 | 39 | 1004.9 |
| 20260508224047 | 18 | 197 | 4.8 | 11.3 | 0.00 | 0.00 | 0.00 | 36 | 1005.0 |
| 20260508223547 | 18 | 197 | 3.2 | 12.9 | 0.00 | 0.00 | 0.00 | 33 | 1005.0 |
| 20260508223052 | 18 | 209 | 3.2 | 12.9 | 0.00 | 0.00 | 0.00 | 38 | 1005.1 |
| 20260508222546 | 18 | 221 | 6.4 | 12.9 | 0.00 | 0.00 | 0.00 | 36 | 1005.1 |
| 20260508222046 | 18 | 197 | 4.8 | 11.3 | 0.00 | 0.00 | 0.00 | 38 | 1005.1 |
| 20260508221551 | 18 | 217 | 3.2 | 11.3 | 0.00 | 0.00 | 0.00 | 35 | 1005.1 |
| 20260508221047 | 18 | 196 | 0.0 | 4.8 | 0.00 | 0.00 | 0.00 | 34 | 1005.1 |
| 20260508220547 | 18 | 225 | 1.6 | 9.7 | 0.00 | 0.00 | 0.00 | 33 | 1005.2 |
| 20260508220104 | 18 | 260 | 3.2 | 9.7 | 0.00 | 0.00 | 0.00 | 32 | 1005.2 |
| 20260508215546 | 18 | 230 | 3.2 | 9.7 | 0.00 | 0.00 | 0.00 | 34 | 1005.2 |
| 20260508215048 | 18 | 177 | 3.2 | 9.7 | 0.00 | 0.00 | 0.00 | 33 | 1005.1 |
| 20260508214551 | 18 | 216 | 3.2 | 9.7 | 0.00 | 0.00 | 0.00 | 35 | 1005.2 |
| 20260508214046 | 18 | 182 | 0.0 | 9.7 | 0.00 | 0.00 | 0.00 | 29 | 1005.2 |
| 20260508213547 | 18 | 267 | 0.0 | 9.7 | 0.00 | 0.00 | 0.00 | 30 | 1005.2 |
| 20260508213051 | 18 | 209 | 4.8 | 9.7 | 0.00 | 0.00 | 0.00 | 32 | 1005.3 |
| 20260508212547 | 18 | 211 | 1.6 | 9.7 | 0.00 | 0.00 | 0.00 | 28 | 1005.4 |
| 20260508212046 | 18 | 0 | 4.8 | 12.9 | 0.00 | 0.00 | 0.00 | 32 | 1005.5 |
| 20260508211557 | 18 | 213 | 3.2 | 16.1 | 0.00 | 0.00 | 0.00 | 31 | 1005.5 |
| 20260508211046 | 18 | 200 | 6.4 | 16.1 | 0.00 | 0.00 | 0.00 | 34 | 1005.3 |
| 20260508210548 | 19 | 161 | 0.0 | 11.3 | 0.00 | 0.00 | 0.00 | 32 | 1005.5 |
| 20260508210106 | 19 | 212 | 3.2 | 14.5 | 0.00 | 0.00 | 0.00 | 34 | 1005.7 |
| 20260508205547 | 19 | 210 | 4.8 | 14.5 | 0.00 | 0.00 | 0.00 | 31 | 1005.8 |
| 20260508205047 | 20 | 205 | 0.0 | 19.3 | 0.00 | 0.00 | 0.00 | 33 | 1005.8 |
| 20260508204557 | 18 | 216 | 6.4 | 19.3 | 0.00 | 0.00 | 0.00 | 29 | 1006.0 |
| 20260508204046 | 19 | 189 | 8.0 | 17.7 | 0.00 | 0.00 | 0.00 | 34 | 1006.0 |
| 20260508203547 | 19 | 188 | 4.8 | 9.7 | 0.00 | 0.00 | 0.00 | 35 | 1006.1 |
| 20260508203054 | 19 | 193 | 4.8 | 9.7 | 0.00 | 0.00 | 0.00 | 34 | 1006.3 |
| 20260508202547 | 19 | 208 | 4.8 | 9.7 | 0.00 | 0.00 | 0.00 | 36 | 1006.1 |
| 20260508202046 | 20 | 210 | 4.8 | 8.0 | 0.00 | 0.00 | 0.00 | 34 | 1006.3 |
| 20260508201558 | 20 | 0 | 0.0 | 14.5 | 0.00 | 0.00 | 0.00 | 34 | 1006.3 |
| 20260508201046 | 20 | 207 | 3.2 | 14.5 | 0.00 | 0.00 | 0.00 | 31 | 1006.4 |
| 20260508200546 | 20 | 184 | 3.2 | 12.9 | 0.00 | 0.00 | 0.00 | 31 | 1006.5 |
| 20260508200058 | 19 | 0 | 0.0 | 12.9 | 0.00 | 0.00 | 0.00 | 35 | 1006.5 |
| 20260508195545 | 18 | 196 | 1.6 | 14.5 | 0.00 | 0.00 | 0.00 | 36 | 1006.6 |
| 20260508195045 | 18 | 195 | 6.4 | 16.1 | 0.00 | 0.00 | 0.00 | 31 | 1006.7 |
| 20260508194551 | 18 | 236 | 4.8 | 16.1 | 0.00 | 0.00 | 0.00 | 36 | 1006.7 |
| 20260508194049 | 18 | 178 | 6.4 | 17.7 | 0.00 | 0.00 | 0.00 | 38 | 1006.9 |
| 20260508193543 | 18 | 211 | 4.8 | 19.3 | 0.00 | 0.00 | 0.00 | 35 | 1006.9 |
| 20260508193102 | 18 | 173 | 9.7 | 19.3 | 0.00 | 0.00 | 0.00 | 40 | 1007.0 |
| 20260508192547 | 18 | 203 | 8.0 | 19.3 | 0.00 | 0.00 | 0.00 | 36 | 1007.0 |
| 20260508192047 | 18 | 172 | 3.2 | 14.5 | 0.00 | 0.00 | 0.00 | 37 | 1007.0 |
| 20260508191555 | 18 | 197 | 3.2 | 16.1 | 0.00 | 0.00 | 0.00 | 38 | 1007.1 |
| 20260508191046 | 18 | 190 | 6.4 | 16.1 | 0.00 | 0.00 | 0.00 | 33 | 1007.1 |
| 20260508190547 | 18 | 190 | 4.8 | 16.1 | 0.00 | 0.00 | 0.00 | 33 | 1007.2 |
| 20260508185546 | 19 | 0 | 0.0 | 11.3 | 0.00 | 0.00 | 0.00 | 33 | 1007.4 |
| 20260508185046 | 18 | 184 | 3.2 | 11.3 | 0.00 | 0.00 | 0.00 | 36 | 1007.5 |
| 20260508184624 | 18 | 194 | 3.2 | 11.3 | 0.00 | 0.00 | 0.00 | 33 | 1007.6 |
| 20260508184045 | 18 | 197 | 4.8 | 12.9 | 0.00 | 0.00 | 0.00 | 35 | 1007.6 |
| 20260508183545 | 18 | 207 | 4.8 | 20.9 | 0.00 | 0.00 | 0.00 | 33 | 1007.7 |
| 20260508183051 | 17 | 209 | 4.8 | 20.9 | 0.00 | 0.00 | 0.00 | 33 | 1007.6 |
| 20260508182547 | 18 | 188 | 8.0 | 12.9 | 0.00 | 0.00 | 0.00 | 37 | 1007.7 |
| 20260508182045 | 18 | 190 | 3.2 | 8.0 | 0.00 | 0.00 | 0.00 | 35 | 1007.8 |
| 20260508181604 | 19 | 217 | 0.0 | 12.9 | 0.00 | 0.00 | 0.00 | 30 | 1007.9 |
| 20260508181049 | 17 | 169 | 4.8 | 12.9 | 0.00 | 0.00 | 0.00 | 32 | 1007.9 |
| 20260508180546 | 17 | 196 | 6.4 | 12.9 | 0.00 | 0.00 | 0.00 | 37 | 1008.0 |
| 20260508180053 | 18 | 209 | 0.0 | 9.7 | 0.00 | 0.00 | 0.00 | 33 | 1008.0 |
| 20260508175547 | 17 | 0 | 3.2 | 11.3 | 0.00 | 0.00 | 0.00 | 39 | 1008.1 |
| 20260508175047 | 16 | 188 | 1.6 | 11.3 | 0.00 | 0.00 | 0.00 | 30 | 1008.2 |
| 20260508174551 | 16 | 194 | 4.8 | 11.3 | 0.00 | 0.00 | 0.00 | 35 | 1008.3 |
| 20260508174046 | 16 | 0 | 4.8 | 14.5 | 0.00 | 0.00 | 0.00 | 35 | 1008.2 |
| 20260508173547 | 16 | 178 | 3.2 | 14.5 | 0.00 | 0.00 | 0.00 | 43 | 1008.5 |
| 20260508173053 | 16 | 193 | 6.4 | 14.5 | 0.00 | 0.00 | 0.00 | 37 | 1008.4 |
| 20260508172545 | 16 | 200 | 3.2 | 14.5 | 0.00 | 0.00 | 0.00 | 39 | 1008.6 |
| 20260508172046 | 16 | 188 | 4.8 | 14.5 | 0.00 | 0.00 | 0.00 | 39 | 1008.6 |
| 20260508171551 | 16 | 197 | 6.4 | 12.9 | 0.00 | 0.00 | 0.00 | 41 | 1008.7 |
| 20260508171045 | 15 | 188 | 4.8 | 14.5 | 0.00 | 0.00 | 0.00 | 41 | 1008.7 |
| 20260508170542 | 15 | 184 | 4.8 | 14.5 | 0.00 | 0.00 | 0.00 | 39 | 1008.8 |
| 20260508170052 | 16 | 205 | 4.8 | 9.7 | 0.00 | 0.00 | 0.00 | 41 | 1008.9 |
| 20260508165547 | 16 | 202 | 3.2 | 8.0 | 0.00 | 0.00 | 0.00 | 40 | 1009.0 |
| 20260508165047 | 15 | 191 | 1.6 | 8.0 | 0.00 | 0.00 | 0.00 | 32 | 1009.1 |
| 20260508164600 | 15 | 222 | 3.2 | 8.0 | 0.00 | 0.00 | 0.00 | 39 | 1009.1 |
| 20260508164046 | 15 | 0 | 1.6 | 6.4 | 0.00 | 0.00 | 0.00 | 29 | 1009.2 |
| 20260508163547 | 15 | 187 | 3.2 | 9.7 | 0.00 | 0.00 | 0.00 | 35 | 1009.3 |
| 20260508163051 | 15 | 0 | 1.6 | 9.7 | 0.00 | 0.00 | 0.00 | 37 | 1009.4 |
| 20260508162548 | 15 | 175 | 3.2 | 9.7 | 0.00 | 0.00 | 0.00 | 39 | 1009.5 |
| 20260508162048 | 15 | 192 | 4.8 | 9.7 | 0.00 | 0.00 | 0.00 | 42 | 1009.5 |
| 20260508161551 | 15 | 0 | 3.2 | 8.0 | 0.00 | 0.00 | 0.00 | 38 | 1009.6 |
| 20260508161047 | 15 | 194 | 0.0 | 6.4 | 0.00 | 0.00 | 0.00 | 39 | 1009.6 |
| 20260508160546 | 15 | 223 | 3.2 | 9.7 | 0.00 | 0.00 | 0.00 | 42 | 1009.7 |
| 20260508160050 | 15 | 0 | 3.2 | 9.7 | 0.00 | 0.00 | 0.00 | 41 | 1009.7 |
| 20260508155546 | 15 | 187 | 3.2 | 9.7 | 0.00 | 0.00 | 0.00 | 42 | 1009.9 |
| 20260508155047 | 15 | 178 | 3.2 | 9.7 | 0.00 | 0.00 | 0.00 | 41 | 1010.0 |
| 20260508154550 | 15 | 187 | 3.2 | 8.0 | 0.00 | 0.00 | 0.00 | 41 | 1010.1 |
| 20260508154045 | 15 | 0 | 0.0 | 4.8 | 0.00 | 0.00 | 0.00 | 36 | 1010.1 |
| 20260508153546 | 15 | 0 | 0.0 | 8.0 | 0.00 | 0.00 | 0.00 | 31 | 1010.1 |
| 20260508153125 | 15 | 198 | 3.2 | 8.0 | 0.00 | 0.00 | 0.00 | 41 | 1010.1 |
| 20260508152548 | 14 | 201 | 0.0 | 11.3 | 0.00 | 0.00 | 0.00 | 41 | 1010.1 |
| 20260508152047 | 14 | 183 | 4.8 | 11.3 | 0.00 | 0.00 | 0.00 | 40 | 1010.0 |
| 20260508151600 | 14 | 198 | 3.2 | 11.3 | 0.00 | 0.00 | 0.00 | 40 | 1010.1 |
| 20260508151047 | 13 | 0 | 4.8 | 11.3 | 0.00 | 0.00 | 0.00 | 39 | 1010.1 |
| 20260508150546 | 13 | 187 | 3.2 | 12.9 | 0.00 | 0.00 | 0.00 | 45 | 1010.1 |
| 20260508150100 | 13 | 190 | 8.0 | 12.9 | 0.00 | 0.00 | 0.00 | 47 | 1010.3 |
| 20260508145545 | 13 | 190 | 6.4 | 11.3 | 0.00 | 0.00 | 0.00 | 49 | 1010.2 |
| 20260508145045 | 13 | 211 | 3.2 | 9.7 | 0.00 | 0.00 | 0.00 | 52 | 1010.2 |
| 20260508144619 | 13 | 196 | 3.2 | 9.7 | 0.00 | 0.00 | 0.00 | 56 | 1010.2 |
| 20260508144047 | 12 | 165 | 6.4 | 11.3 | 0.00 | 0.00 | 0.00 | 53 | 1010.1 |
| 20260508143547 | 12 | 189 | 6.4 | 11.3 | 0.00 | 0.00 | 0.00 | 55 | 1010.0 |
| 20260508143059 | 12 | 179 | 4.8 | 11.3 | 0.00 | 0.00 | 0.00 | 61 | 1010.0 |
| 20260508142546 | 11 | 186 | 4.8 | 11.3 | 0.00 | 0.00 | 0.00 | 58 | 1010.1 |
| 20260508142046 | 11 | 182 | 3.2 | 11.3 | 0.00 | 0.00 | 0.00 | 63 | 1010.1 |
| 20260508141605 | 11 | 191 | 3.2 | 8.0 | 0.00 | 0.00 | 0.00 | 65 | 1010.2 |
| 20260508141045 | 11 | 179 | 3.2 | 8.0 | 0.00 | 0.00 | 0.00 | 68 | 1010.2 |
| 20260508140545 | 10 | 188 | 3.2 | 8.0 | 0.00 | 0.00 | 0.00 | 70 | 1010.4 |
| 20260508140054 | 10 | 185 | 4.8 | 9.7 | 0.00 | 0.00 | 0.00 | 73 | 1010.4 |
| 20260508135546 | 10 | 199 | 4.8 | 9.7 | 0.00 | 0.00 | 0.00 | 74 | 1010.2 |
| 20260508135049 | 9 | 190 | 4.8 | 9.7 | 0.00 | 0.00 | 0.00 | 76 | 1010.4 |
| 20260508134557 | 8 | 179 | 3.2 | 8.0 | 0.00 | 0.00 | 0.00 | 80 | 1010.4 |
| 20260508134047 | 7 | 191 | 3.2 | 6.4 | 0.00 | 0.00 | 0.00 | 87 | 1010.6 |
| 20260508133545 | 7 | 182 | 1.6 | 6.4 | 0.00 | 0.00 | 0.00 | 89 | 1010.6 |
| 20260508133115 | 7 | 192 | 0.0 | 6.4 | 0.00 | 0.00 | 0.00 | 91 | 1010.6 |
| 20260508132546 | 7 | 186 | 3.2 | 8.0 | 0.00 | 0.00 | 0.00 | 92 | 1010.6 |
| 20260508132048 | 6 | 186 | 3.2 | 9.7 | 0.00 | 0.00 | 0.00 | 93 | 1010.7 |
| 20260508131551 | 6 | 179 | 4.8 | 12.9 | 0.00 | 0.00 | 0.00 | 93 | 1010.7 |
| 20260508131048 | 6 | 189 | 4.8 | 12.9 | 0.00 | 0.00 | 0.00 | 94 | 1010.6 |
| 20260508130548 | 5 | 184 | 8.0 | 12.9 | 0.00 | 0.00 | 0.00 | 94 | 1010.6 |
| 20260508130052 | 5 | 183 | 4.8 | 9.7 | 0.00 | 0.00 | 0.00 | 94 | 1010.8 |
| 20260508125547 | 5 | 215 | 4.8 | 9.7 | 0.00 | 0.00 | 0.00 | 94 | 1010.8 |
| 20260508125043 | 4 | 186 | 4.8 | 9.7 | 0.00 | 0.00 | 0.00 | 94 | 1010.7 |
| 20260508124552 | 4 | 193 | 3.2 | 9.7 | 0.00 | 0.00 | 0.00 | 94 | 1010.7 |
| 20260508124045 | 3 | 196 | 3.2 | 9.7 | 0.00 | 0.00 | 0.00 | 94 | 1010.7 |
| 20260508123546 | 3 | 184 | 1.6 | 4.8 | 0.00 | 0.00 | 0.00 | 93 | 1010.8 |
| 20260508123100 | 2 | 188 | 1.6 | 4.8 | 0.00 | 0.00 | 0.00 | 93 | 1010.8 |
| 20260508122543 | 2 | 0 | 0.0 | 4.8 | 0.00 | 0.00 | 0.00 | 93 | 1010.8 |
| 20260508122048 | 2 | 0 | 0.0 | 4.8 | 0.00 | 0.00 | 0.00 | 93 | 1010.8 |
| 20260508121552 | 1 | 0 | 0.0 | 4.8 | 0.00 | 0.00 | 0.00 | 92 | 1010.8 |
| 20260508121046 | 1 | 179 | 0.0 | 3.2 | 0.00 | 0.00 | 0.00 | 92 | 1010.8 |
| 20260508120546 | 1 | 0 | 0.0 | 1.6 | 0.00 | 0.00 | 0.00 | 91 | 1010.7 |
| 20260508120056 | 1 | 0 | 0.0 | 0.0 | 0.00 | 0.00 | 0.00 | 91 | 1010.7 |
| 20260508115547 | 1 | 0 | 0.0 | 0.0 | 0.00 | 0.00 | 0.00 | 91 | 1010.6 |